Time,TemperatureF,DewpointF,PressureIn,WindDirection,WindDirectionDegrees,WindSpeedMPH,WindSpeedGustMPH,Humidity,HourlyPrecipIn,Conditions,Clouds,dailyrainin,SoftwareType,DateUTC
2013-03-08 00:12:00,30.0,-99.9,-100.00,North,-999,-999.0,-999.0,-999,0.00,,,0.07,,2013-03-08 05:12:00,
2013-03-08 00:22:00,30.0,-99.9,-100.00,North,-999,-999.0,-999.0,-999,0.00,,,0.07,,2013-03-08 05:22:00,
2013-03-08 00:30:00,29.0,-99.9,-100.00,North,-999,-999.0,-999.0,-999,0.01,,,0.08,,2013-03-08 05:30:00,
2013-03-08 00:52:00,29.0,-99.9,-100.00,North,-999,-999.0,-999.0,-999,0.01,,,0.08,,2013-03-08 05:52:00,
2013-03-08 01:02:00,29.0,-99.9,-100.00,North,-999,-999.0,-999.0,-999,0.01,,,0.08,,2013-03-08 06:02:00,
2013-03-08 01:11:00,29.0,-99.9,-100.00,North,-999,-999.0,-999.0,-999,0.01,,,0.08,,2013-03-08 06:11:00,
2013-03-08 01:22:00,29.0,-99.9,-100.00,North,-999,-999.0,-999.0,-999,0.01,,,0.08,,2013-03-08 06:22:00,
2013-03-08 01:30:00,29.0,-99.9,-100.00,North,-999,-999.0,-999.0,-999,0.02,,,0.10,,2013-03-08 06:30:00,
2013-03-08 01:52:00,29.0,-99.9,-100.00,North,-999,-999.0,-999.0,-999,0.02,,,0.10,,2013-03-08 06:52:00,
2013-03-08 02:02:00,29.0,-99.9,-100.00,North,-999,-999.0,-999.0,-999,0.02,,,0.10,,2013-03-08 07:02:00,
2013-03-08 02:12:00,29.0,-99.9,-100.00,North,-999,-999.0,-999.0,-999,0.02,,,0.10,,2013-03-08 07:12:00,
2013-03-08 02:22:00,29.0,-99.9,-100.00,North,-999,-999.0,-999.0,-999,0.02,,,0.10,,2013-03-08 07:22:00,
2013-03-08 02:30:00,29.0,-99.9,-100.00,North,-999,-999.0,-999.0,-999,0.02,,,0.12,,2013-03-08 07:30:00,
2013-03-08 02:52:00,29.0,-99.9,-100.00,North,-999,-999.0,-999.0,-999,0.02,,,0.12,,2013-03-08 07:52:00,
2013-03-08 03:02:00,29.0,-99.9,-100.00,North,-999,-999.0,-999.0,-999,0.02,,,0.12,,2013-03-08 08:02:00,
2013-03-08 03:11:00,29.0,-99.9,-100.00,North,-999,-999.0,-999.0,-999,0.02,,,0.12,,2013-03-08 08:11:00,
2013-03-08 03:22:00,29.0,-99.9,-100.00,North,-999,-999.0,-999.0,-999,0.02,,,0.12,,2013-03-08 08:22:00,
2013-03-08 03:52:00,29.0,-99.9,-100.00,North,-999,-999.0,-999.0,-999,0.02,,,0.14,,2013-03-08 08:52:00,
2013-03-08 04:03:00,29.0,-99.9,-100.00,North,-999,-999.0,-999.0,-999,0.02,,,0.14,,2013-03-08 09:03:00,
2013-03-08 04:11:00,29.0,-99.9,-100.00,North,-999,-999.0,-999.0,-999,0.02,,,0.14,,2013-03-08 09:11:00,
2013-03-08 04:22:00,29.0,-99.9,-100.00,North,-999,-999.0,-999.0,-999,0.02,,,0.14,,2013-03-08 09:22:00,
2013-03-08 04:30:00,29.0,-99.9,-100.00,North,-999,-999.0,-999.0,-999,0.02,,,0.16,,2013-03-08 09:30:00,
2013-03-08 04:52:00,29.0,-99.9,-100.00,North,-999,-999.0,-999.0,-999,0.02,,,0.16,,2013-03-08 09:52:00,
2013-03-08 05:01:00,29.0,-99.9,-100.00,North,-999,-999.0,-999.0,-999,0.02,,,0.16,,2013-03-08 10:01:00,
2013-03-08 05:12:00,29.0,-99.9,-100.00,North,-999,-999.0,-999.0,-999,0.02,,,0.16,,2013-03-08 10:12:00,
2013-03-08 05:22:00,29.0,-99.9,-100.00,North,-999,-999.0,-999.0,-999,0.02,,,0.16,,2013-03-08 10:22:00,
2013-03-08 05:30:00,28.0,-99.9,-100.00,North,-999,-999.0,-999.0,-999,0.03,,,0.19,,2013-03-08 10:30:00,
2013-03-08 05:52:00,28.0,-99.9,-100.00,North,-999,-999.0,-999.0,-999,0.03,,,0.19,,2013-03-08 10:52:00,
2013-03-08 06:02:00,28.0,-99.9,-100.00,North,-999,-999.0,-999.0,-999,0.03,,,0.19,,2013-03-08 11:02:00,
2013-03-08 06:11:00,28.0,-99.9,-100.00,North,-999,-999.0,-999.0,-999,0.03,,,0.19,,2013-03-08 11:11:00,
2013-03-08 06:22:00,28.0,-99.9,-100.00,North,-999,-999.0,-999.0,-999,0.03,,,0.19,,2013-03-08 11:22:00,
2013-03-08 06:30:00,28.0,-99.9,-100.00,North,-999,-999.0,-999.0,-999,0.01,,,0.20,,2013-03-08 11:30:00,
2013-03-08 06:53:00,28.0,-99.9,-100.00,North,-999,-999.0,-999.0,-999,0.01,,,0.20,,2013-03-08 11:53:00,
2013-03-08 07:02:00,28.0,-99.9,-100.00,North,-999,-999.0,-999.0,-999,0.01,,,0.20,,2013-03-08 12:02:00,
2013-03-08 07:12:00,28.0,-99.9,-100.00,North,-999,-999.0,-999.0,-999,0.01,,,0.20,,2013-03-08 12:12:00,
2013-03-08 07:23:00,28.0,-99.9,-100.00,North,-999,-999.0,-999.0,-999,0.01,,,0.20,,2013-03-08 12:23:00,
2013-03-08 07:30:00,28.0,-99.9,-100.00,North,-999,-999.0,-999.0,-999,0.05,,,0.25,,2013-03-08 12:30:00,
2013-03-08 07:53:00,28.0,-99.9,-100.00,North,-999,-999.0,-999.0,-999,0.05,,,0.25,,2013-03-08 12:53:00,
2013-03-08 08:02:00,28.0,-99.9,-100.00,North,-999,-999.0,-999.0,-999,0.05,,,0.25,,2013-03-08 13:02:00,
2013-03-08 08:12:00,28.0,-99.9,-100.00,North,-999,-999.0,-999.0,-999,0.05,,,0.25,,2013-03-08 13:12:00,
2013-03-08 08:22:00,28.0,-99.9,-100.00,North,-999,-999.0,-999.0,-999,0.05,,,0.25,,2013-03-08 13:22:00,
2013-03-08 08:30:00,29.0,-99.9,-100.00,North,-999,-999.0,-999.0,-999,0.06,,,0.31,,2013-03-08 13:30:00,
2013-03-08 08:53:00,29.0,-99.9,-100.00,North,-999,-999.0,-999.0,-999,0.06,,,0.31,,2013-03-08 13:53:00,
2013-03-08 09:03:00,29.0,-99.9,-100.00,North,-999,-999.0,-999.0,-999,0.06,,,0.31,,2013-03-08 14:03:00,
2013-03-08 09:22:00,29.0,-99.9,-100.00,North,-999,-999.0,-999.0,-999,0.06,,,0.31,,2013-03-08 14:22:00,
2013-03-08 09:30:00,31.0,-99.9,-100.00,North,-999,-999.0,-999.0,-999,0.02,,,0.33,,2013-03-08 14:30:00,
2013-03-08 09:53:00,31.0,-99.9,-100.00,North,-999,-999.0,-999.0,-999,0.02,,,0.33,,2013-03-08 14:53:00,
2013-03-08 10:03:00,31.0,-99.9,-100.00,North,-999,-999.0,-999.0,-999,0.02,,,0.33,,2013-03-08 15:03:00,
2013-03-08 10:12:00,31.0,-99.9,-100.00,North,-999,-999.0,-999.0,-999,0.02,,,0.33,,2013-03-08 15:12:00,
2013-03-08 10:22:00,31.0,-99.9,-100.00,North,-999,-999.0,-999.0,-999,0.02,,,0.33,,2013-03-08 15:22:00,
2013-03-08 10:30:00,33.0,-99.9,-100.00,North,-999,-999.0,-999.0,-999,0.00,,,0.33,,2013-03-08 15:30:00,
2013-03-08 10:53:00,33.0,-99.9,-100.00,North,-999,-999.0,-999.0,-999,0.00,,,0.33,,2013-03-08 15:53:00,
2013-03-08 11:02:00,33.0,-99.9,-100.00,North,-999,-999.0,-999.0,-999,0.00,,,0.33,,2013-03-08 16:02:00,
2013-03-08 11:12:00,33.0,-99.9,-100.00,North,-999,-999.0,-999.0,-999,0.00,,,0.33,,2013-03-08 16:12:00,
2013-03-08 11:22:00,33.0,-99.9,-100.00,North,-999,-999.0,-999.0,-999,0.00,,,0.33,,2013-03-08 16:22:00,
2013-03-08 11:30:00,34.0,-99.9,-100.00,North,-999,-999.0,-999.0,-999,0.00,,,0.33,,2013-03-08 16:30:00,
2013-03-08 11:52:00,34.0,-99.9,-100.00,North,-999,-999.0,-999.0,-999,0.00,,,0.33,,2013-03-08 16:52:00,
2013-03-08 12:03:00,34.0,-99.9,-100.00,North,-999,-999.0,-999.0,-999,0.00,,,0.33,,2013-03-08 17:03:00,
2013-03-08 12:12:00,34.0,-99.9,-100.00,North,-999,-999.0,-999.0,-999,0.00,,,0.33,,2013-03-08 17:12:00,
2013-03-08 12:22:00,34.0,-99.9,-100.00,North,-999,-999.0,-999.0,-999,0.00,,,0.33,,2013-03-08 17:22:00,
2013-03-08 12:30:00,35.0,-99.9,-100.00,North,-999,-999.0,-999.0,-999,0.00,,,0.33,,2013-03-08 17:30:00,
2013-03-08 12:53:00,35.0,-99.9,-100.00,North,-999,-999.0,-999.0,-999,0.00,,,0.33,,2013-03-08 17:53:00,
2013-03-08 13:12:00,35.0,-99.9,-100.00,North,-999,-999.0,-999.0,-999,0.00,,,0.33,,2013-03-08 18:12:00,
2013-03-08 13:22:00,35.0,-99.9,-100.00,North,-999,-999.0,-999.0,-999,0.00,,,0.33,,2013-03-08 18:22:00,
2013-03-08 13:30:00,36.0,-99.9,-100.00,North,-999,-999.0,-999.0,-999,0.00,,,0.32,,2013-03-08 18:30:00,
2013-03-08 13:52:00,36.0,-99.9,-100.00,North,-999,-999.0,-999.0,-999,0.00,,,0.32,,2013-03-08 18:52:00,
2013-03-08 14:12:00,36.0,-99.9,-100.00,North,-999,-999.0,-999.0,-999,0.00,,,0.32,,2013-03-08 19:12:00,
2013-03-08 14:22:00,36.0,-99.9,-100.00,North,-999,-999.0,-999.0,-999,0.00,,,0.32,,2013-03-08 19:22:00,
2013-03-08 14:30:00,38.0,-99.9,-100.00,North,-999,-999.0,-999.0,-999,0.00,,,0.32,,2013-03-08 19:30:00,
2013-03-08 14:52:00,38.0,-99.9,-100.00,North,-999,-999.0,-999.0,-999,0.00,,,0.32,,2013-03-08 19:52:00,
2013-03-08 15:02:00,38.0,-99.9,-100.00,North,-999,-999.0,-999.0,-999,0.00,,,0.32,,2013-03-08 20:02:00,
2013-03-08 15:12:00,38.0,-99.9,-100.00,North,-999,-999.0,-999.0,-999,0.00,,,0.32,,2013-03-08 20:12:00,
2013-03-08 15:22:00,38.0,-99.9,-100.00,North,-999,-999.0,-999.0,-999,0.00,,,0.32,,2013-03-08 20:22:00,
2013-03-08 15:30:00,37.0,-99.9,-100.00,North,-999,-999.0,-999.0,-999,0.00,,,0.32,,2013-03-08 20:30:00,
2013-03-08 15:53:00,37.0,-99.9,-100.00,North,-999,-999.0,-999.0,-999,0.00,,,0.32,,2013-03-08 20:53:00,
2013-03-08 16:02:00,37.0,-99.9,-100.00,North,-999,-999.0,-999.0,-999,0.00,,,0.32,,2013-03-08 21:02:00,
2013-03-08 16:12:00,37.0,-99.9,-100.00,North,-999,-999.0,-999.0,-999,0.00,,,0.32,,2013-03-08 21:12:00,
2013-03-08 16:22:00,37.0,-99.9,-100.00,North,-999,-999.0,-999.0,-999,0.00,,,0.32,,2013-03-08 21:22:00,
2013-03-08 16:30:00,37.0,-99.9,-100.00,North,-999,-999.0,-999.0,-999,0.00,,,0.30,,2013-03-08 21:30:00,
2013-03-08 16:52:00,37.0,-99.9,-100.00,North,-999,-999.0,-999.0,-999,0.00,,,0.30,,2013-03-08 21:52:00,
2013-03-08 17:02:00,37.0,-99.9,-100.00,North,-999,-999.0,-999.0,-999,0.00,,,0.30,,2013-03-08 22:02:00,
2013-03-08 17:12:00,37.0,-99.9,-100.00,North,-999,-999.0,-999.0,-999,0.00,,,0.30,,2013-03-08 22:12:00,
2013-03-08 17:22:00,37.0,-99.9,-100.00,North,-999,-999.0,-999.0,-999,0.00,,,0.30,,2013-03-08 22:22:00,
2013-03-08 17:53:00,35.0,-99.9,-100.00,North,-999,-999.0,-999.0,-999,0.00,,,0.30,,2013-03-08 22:53:00,
2013-03-08 18:02:00,35.0,-99.9,-100.00,North,-999,-999.0,-999.0,-999,0.00,,,0.30,,2013-03-08 23:02:00,
2013-03-08 18:12:00,35.0,-99.9,-100.00,North,-999,-999.0,-999.0,-999,0.00,,,0.30,,2013-03-08 23:12:00,
2013-03-08 18:22:00,35.0,-99.9,-100.00,North,-999,-999.0,-999.0,-999,0.00,,,0.30,,2013-03-08 23:22:00,
2013-03-08 18:30:00,31.0,-99.9,-100.00,North,-999,-999.0,-999.0,-999,0.00,,,0.28,,2013-03-08 23:30:00,
2013-03-08 18:53:00,31.0,-99.9,-100.00,North,-999,-999.0,-999.0,-999,0.00,,,0.28,,2013-03-08 23:53:00,
2013-03-08 19:02:00,31.0,-99.9,-100.00,North,-999,-999.0,-999.0,-999,0.00,,,0.28,,2013-03-09 00:02:00,
2013-03-08 19:12:00,31.0,-99.9,-100.00,North,-999,-999.0,-999.0,-999,0.00,,,0.28,,2013-03-09 00:12:00,
2013-03-08 19:22:00,31.0,-99.9,-100.00,North,-999,-999.0,-999.0,-999,0.00,,,0.28,,2013-03-09 00:22:00,
2013-03-08 19:30:00,28.0,-99.9,-100.00,North,-999,-999.0,-999.0,-999,0.00,,,0.27,,2013-03-09 00:30:00,
2013-03-08 20:02:00,28.0,-99.9,-100.00,North,-999,-999.0,-999.0,-999,0.00,,,0.27,,2013-03-09 01:02:00,
2013-03-08 20:12:00,28.0,-99.9,-100.00,North,-999,-999.0,-999.0,-999,0.00,,,0.27,,2013-03-09 01:12:00,
2013-03-08 20:22:00,28.0,-99.9,-100.00,North,-999,-999.0,-999.0,-999,0.00,,,0.27,,2013-03-09 01:22:00,
2013-03-08 20:30:00,26.0,-99.9,-100.00,North,-999,-999.0,-999.0,-999,0.00,,,0.27,,2013-03-09 01:30:00,
2013-03-08 20:52:00,26.0,-99.9,-100.00,North,-999,-999.0,-999.0,-999,0.00,,,0.27,,2013-03-09 01:52:00,
2013-03-08 21:01:00,26.0,-99.9,-100.00,North,-999,-999.0,-999.0,-999,0.00,,,0.27,,2013-03-09 02:01:00,
2013-03-08 21:11:00,26.0,-99.9,-100.00,North,-999,-999.0,-999.0,-999,0.00,,,0.27,,2013-03-09 02:11:00,
2013-03-08 21:21:00,26.0,-99.9,-100.00,North,-999,-999.0,-999.0,-999,0.00,,,0.27,,2013-03-09 02:21:00,
2013-03-08 21:30:00,27.0,-99.9,-100.00,North,-999,-999.0,-999.0,-999,0.00,,,0.27,,2013-03-09 02:30:00,
2013-03-08 21:52:00,27.0,-99.9,-100.00,North,-999,-999.0,-999.0,-999,0.00,,,0.27,,2013-03-09 02:52:00,
2013-03-08 22:01:00,27.0,-99.9,-100.00,North,-999,-999.0,-999.0,-999,0.00,,,0.27,,2013-03-09 03:01:00,
2013-03-08 22:11:00,27.0,-99.9,-100.00,North,-999,-999.0,-999.0,-999,0.00,,,0.27,,2013-03-09 03:11:00,
2013-03-08 22:22:00,27.0,-99.9,-100.00,North,-999,-999.0,-999.0,-999,0.00,,,0.27,,2013-03-09 03:22:00,
2013-03-08 22:30:00,25.0,-99.9,-100.00,North,-999,-999.0,-999.0,-999,0.00,,,0.26,,2013-03-09 03:30:00,
2013-03-08 22:52:00,25.0,-99.9,-100.00,North,-999,-999.0,-999.0,-999,0.00,,,0.26,,2013-03-09 03:52:00,
2013-03-08 23:02:00,25.0,-99.9,-100.00,North,-999,-999.0,-999.0,-999,0.00,,,0.26,,2013-03-09 04:02:00,
2013-03-08 23:12:00,25.0,-99.9,-100.00,North,-999,-999.0,-999.0,-999,0.00,,,0.26,,2013-03-09 04:12:00,
2013-03-08 23:22:00,25.0,-99.9,-100.00,North,-999,-999.0,-999.0,-999,0.00,,,0.26,,2013-03-09 04:22:00,
2013-03-08 23:30:00,24.0,-99.9,-100.00,North,-999,-999.0,-999.0,-999,0.00,,,0.26,,2013-03-09 04:30:00,
2013-03-08 23:52:00,24.0,-99.9,-100.00,North,-999,-999.0,-999.0,-999,0.00,,,0.26,,2013-03-09 04:52:00,